Location: Maccacari
(45.1333°N, 11.1333°E)
Time: 07:50:29
(UTC+00:00)

Cosmos 1674 - Pass Details

Date: 18 September 2020
Orbit: 494 x 518 km, 82.5° (Epoch: 29 October)

Event Time Altitude Azimuth Distance (km) Brightness Sun altitude
Rises 19:03:31 0° 356° (N) 2,653 6.7 -18.6°
Reaches altitude 10° 19:05:43 10° 2° (N) 1,761 5.6 -19.0°
Enters shadow 19:09:21 49° 71° (ENE) 673 2.9 -19.5°
